"Pseudo-MPEC" for WE0913A = DSCOVR object = 2015-007B = NORAD 40391
Created 2015 Oct 26 15:44:08 UT using Find_Orb
There are TLEs (Two-Line Elements) available for this object and for some other artsats listed on these artsat pseudo-MPECs.
A more recent version of this page, with subsequent observations, is available. The object passed the moon at 25881 km (from the center of the moon) on 2016 Jan 17; that changed the orbit drastically, bringing the orbital period down from over 40 days to 19 days (and with more of a drop since then.) I think there may have been a gas release as well; I'm not able to fit post-flyby data to pre-flyby data as well as I'd like.
Eric Christensen remarks (concerning the 2015 March 16 data): "Note that the variation in magnitude is apparently real." Confirming this, Jost Jahn got a time-lapse video of this object on 2019 May 16, showing a light variation of greater than two magnitudes in about 90 seconds.
The following orbits use a two-parameter solution, A1 giving an outward force and A2 an "along-orbit" force. This model, adapted from the Marsden-Sekanina model used for comets, provides a considerably better fit than the usual outward term for solar radiation pressure. The outward component indicates a lightweight object, such as a rocket booster.
Even with the extra two parameters, the fit is poor. That tends to be the case with rocket boosters; solar radiation pushes them around in ways that I, at least, can't model.
The pre-flyby orbit is a poor match to the one DSCOVR actually had (perigee near the earth, apogee near a million kilometers). But you'll see that it does go past the moon on 2015 February 14, at the same time DSCOVR did. So the identification seems quite solid.
It does not, as of 2019 May, seem likely that this object will either hit the moon (I keep hoping for a free LCROSS!) or earth, nor be ejected from the Earth-Moon system in the next few years. Any of those outcomes is possible. Or it could just keep bouncing around the Earth-Moon system. The non-gravitational forces on this object (as with most of the high-flying artsats on this page) are not entirely predictable.
Astrometry:
WE0913A C2015 03 14.24404 11 41 09.35 +52 50 13.2 16.1 VqNEOCP703
WE0913A C2015 03 14.24903 11 41 15.32 +52 49 44.4 16.2 VqNEOCP703
WE0913A C2015 03 14.25403 11 41 21.24 +52 49 13.9 16.9 VqNEOCP703
WE0913A C2015 03 14.25904 11 41 27.05 +52 48 41.9 17.8 VqNEOCP703
WE0913A "C2015 03 14e$AstrometryTTXj],Pno6nn2bPiFAii(8Eb(eRbP1=*i-AO76DMU69
WE0913A "C2015 03 14^l9Fw)lL5j(ERd0^Lredacted;;oiy^PA4g12oI%.ok;t=Qta3s9U69
WE0913A "C2015 03 14w*xIyGmx,Cste*,4Sevgh;_I5G\/:Ym8see\l`OjFMd@lHVl23D*U69
WE0913A "C2015 03 14O*S+i'EN89@RheRo)La+RA;xxNfBX;f31/o12C#KdUm)-c2NEOCPU69
WE0913A C2015 03 14.36062 11 43 17.20 +52 32 18.4 qNEOCP703
WE0913A C2015 03 14.36083 11 43 17.43 +52 32 15.9 17.0 VqNEOCP703
WE0913A C2015 03 14.36104 11 43 17.67 +52 32 13.3 16.4 VqNEOCP703
WE0913A C2015 03 14.36126 11 43 17.90 +52 32 10.4 15.7 VqNEOCP703
WE0913A C2015 03 14.36147 11 43 18.13 +52 32 07.7 16.2 VqNEOCP703
WE0913A C2015 03 14.50743 11 46 43.10 +51 51 31.1 17.0 VqNEOCP703
WE0913A C2015 03 14.50770 11 46 43.53 +51 51 26.4 17.8 VqNEOCP703
WE0913A C2015 03 14.50797 11 46 44.08 +51 51 20.8 17.4 VqNEOCP703
WE0913A C2015 03 14.50823 11 46 44.62 +51 51 15.9 16.6 VqNEOCP703
WE0913A C2015 03 14.50850 11 46 45.10 +51 51 10.2 15.8 VqNEOCP703
WE0913A C2015 03 16.39850 12 55 40.12 +44 48 08.8 15.6 V G96
WE0913A C2015 03 16.40061 12 55 41.64 +44 47 29.4 16.9 V G96
WE0913A C2015 03 16.40270 12 55 43.14 +44 46 50.2 17.1 V G96
WE0913A C2015 03 16.40479 12 55 44.66 +44 46 10.6 15.7 V G96
WE0913A C2015 03 24.46306 16 07 49.48 -14 14 56.4 15.7 VqNEOCPG96
WE0913A C2015 03 24.46845 16 07 51.68 -14 18 05.5 15.8 VqNEOCPG96
WE0913A C2015 03 24.47385 16 07 53.88 -14 21 13.9 15.1 VqNEOCPG96
WE0913A C2015 03 24.50199 16 08 05.40 -14 37 23.2 15.7 VqNEOCPG96
WE0913A C2015 03 24.50218 16 08 05.48 -14 37 29.4 15.6 VqNEOCPG96
WE0913A C2015 03 24.50236 16 08 05.56 -14 37 35.8 15.2 VqNEOCPG96
WE0913A C2015 03 24.50255 16 08 05.64 -14 37 42.2 15.4 VqNEOCPG96
WE0913A C2015 03 24.51486 16 08 10.92 -14 44 40.2 15.6 VqNEOCPG96
WE0913A C2015 03 24.51504 16 08 11.02 -14 44 46.4 15.3 VqNEOCPG96
WE0913A C2015 03 24.51523 16 08 11.10 -14 44 52.8 15.3 VqNEOCPG96
WE0913A C2015 03 24.51543 16 08 11.18 -14 44 59.4 15.7 VqNEOCPG96
WE0913A C2015 03 24.51561 16 08 11.27 -14 45 05.7 15.8 VqNEOCPG96
WE0913A C2015 04 28.33769 14 19 47.22 +25 56 50.4 16.3 718
WE0913A C2015 04 28.33921 14 19 47.85 +25 56 08.6 16.2 718
WE0913A C2015 04 28.34073 14 19 48.45 +25 55 26.8 16.2 718
WE0913A C2015 04 28.34225 14 19 49.08 +25 54 44.3 16.1 718
WE0913A C2015 04 28.34377 14 19 49.70 +25 54 02.1 15.9 718
WE0913A C2015 04 28.34528 14 19 50.33 +25 53 19.7 15.7 718
WE0913A C2015 04 28.85804 14 32 59.59 +21 50 19.5 17.1 V XXX
WE0913A C2015 04 28.85978 14 33 00.88 +21 49 35.5 17.7 V XXX
WE0913A C2015 04 28.87719 14 33 13.29 +21 42 14.6 19.7 V XXX
WE0913A C2015 04 28.88067 14 33 15.61 +21 40 48.1 17.8 V XXX
WE0913A C2015 04 28.88154 14 33 16.20 +21 40 27.4 18.5 V XXX
WE0913A C2015 04 28.88892 14 33 20.95 +21 37 17.4 17.7 V XXX
WE0913A C2015 04 28.89066 14 33 22.15 +21 36 31.1 18.3 V XXX
WE0913A C2015 04 28.90486 14 33 30.91 +21 30 27.2 18.5 V XXX
WE0913A C2015 04 28.90660 14 33 31.95 +21 29 41.3 17.4 V XXX
WE0913A C2015 04 28.90747 14 33 32.54 +21 29 16.2 18.3 V XXX
WE0913A C2015 04 28.90833 14 33 32.99 +21 28 55.8 17.2 V XXX
WE0913A C2015 04 28.91007 14 33 34.00 +21 28 11.0 18.3 V XXX
WE0913A C2015 04 28.91094 14 33 34.52 +21 27 46.0 17.6 V XXX
WE0913A C2015 04 28.91267 14 33 35.54 +21 27 02.9 19.8 V XXX
WE0913A C2015 04 29.59534714 44 32.185+16 17 11.96 15.8 R 568
WE0913A C2015 04 29.59592614 44 32.523+16 16 52.89 15.8 R 568
WE0913A C2015 04 29.59734114 44 33.388+16 16 05.76 16.0 R 568
WE0913A C2015 04 29.59891214 44 34.354+16 15 13.68 16.0 R 568
WE0913A C2015 04 29.59966114 44 34.824+16 14 48.97 15.5 R 568
WE0913A C2015 04 29.60034014 44 35.250+16 14 26.37 15.8 R 568
WE0913A C2015 04 29.60102014 44 35.679+16 14 03.88 15.7 R 568
WE0913A KC2015 04 29.93370114 54 59.50 +13 08 22.2 15.9 R J95
WE0913A KC2015 04 29.93432914 54 59.89 +13 08 04.0 15.5 R J95
WE0913A KC2015 04 29.93495814 55 00.27 +13 07 45.7 15.8 R J95
WE0913A C2015 07 14.30278 16 18 33.591-27 34 52.34 16.8 w D0518F51
WE0913A C2015 07 14.30304 16 18 33.647-27 35 00.94 16.8 w D0518F51
WE0913A C2015 07 14.30330 16 18 33.703-27 35 09.53 16.8 w D0518F51
WE0913A C2015 07 14.31335 16 18 36.070-27 40 53.96 D0518F51
WE0913A C2015 07 14.32396 16 18 38.681-27 46 50.24 16.2 w D0518F51
WE0913A C2015 07 14.32423 16 18 38.734-27 46 58.86 16.2 w D0518F51
WE0913A C2015 07 14.32449 16 18 38.787-27 47 07.48 16.2 w D0518F51
WE0913A C2015 10 14.29709 01 43 21.30 -29 54 13.8 16.2 V D0523703
WE0913A C2015 10 14.30224 01 43 22.53 -29 51 28.5 16.0 V D0523703
WE0913A C2015 10 14.30741 01 43 23.72 -29 48 41.2 15.5 V D0523703
WE0913A C2015 10 14.31252 01 43 24.88 -29 45 52.9 15.6 V D0523703
WE0913A C2015 10 15.11712 02 01 48.74 -21 25 31.0 15.4 R D0523Y00
WE0913A C2015 10 15.11811 02 01 48.80 -21 24 57.0 15.7 R D0523Y00
WE0913A C2015 10 15.11914 02 01 48.89 -21 24 21.8 15.8 R D0523Y00
WE0913A C2015 10 18.11543 03 05 26.66 +11 35 55.4 15.3 R D0523Y00
WE0913A C2015 10 18.11642 03 05 26.83 +11 36 38.9 15.3 R D0523Y00
WE0913A C2015 10 18.11778 03 05 27.11 +11 37 37.3 15.3 R D0523Y00
Station data:
(568) Mauna Kea (N19.8262 W155.4722) US/Hawaii. Observer D. J. Tholen.
2.24-m University of Hawaii reflector.
(703) Catalina Sky Survey (N32.41712 W110.73264) US/Arizona. Observers E.
J. Christensen, A. R. Gibbs, A. D. Grauer, R. E. Hill, J. A. Johnson, R. A.
Kowalski, S. M. Larson, F. C. Shelly. 0.68 m Schmidt + CCD.
(718) Tooele (N40.6415 W112.2958) US/Utah. Observer P. Wiggins. 0.35-m
f/5.5 Schmidt-Cassegrain + CCD.
(F51) Pan-STARRS 1, Haleakala (N20.70733 W156.25591) US/Hawaii. Observers
N. Primak, A. Schultz, S. Watters, J. Thiel, T. Goggia. Measurer PS1
Science Consortium. 1.8-m Ritchey-Chretien + CCD.
(G96) Mt. Lemmon Survey (N32.44287 W110.78872) US/Arizona. Observers E. J.
Christensen, A. R. Gibbs, A. D. Grauer, R. E. Hill, J. A. Johnson, R. A.
Kowalski, S. M. Larson, F. C. Shelly. 1.5-m reflector + CCD.
(J95) Great Shefford (N51.47502 W1.44700) UK. Observer P. Birtwhistle.
0.40-m f/6.0 Schmidt-Cassegrain + CCD.
(U69) iTelescope SRO Observatory, Auberry (N37.0705 W119.4130) US/California.
(XXX) Temporary MPC code XXX (N49.58212 E6.22011) Luxembourg. Observer R.
Kneip. Planewave CDK 14" + CCD.
(Y00) SONEAR Observatory, Oliveira (S20.71513 W44.78496) Brazil. Observers
C. Jacques, E. Pimentel, J. Barros. Measurer C. Jacques. 0.28-m f/2.2
astrograph + CCD.
Orbital elements (future lunar flyby): WE0913A = DSCOVR object = 2015-007B = NORAD 40391
Perilune 2016 Jan 17.834928 +/- 0.000438 TT; A1=2.88e-9, A2=6.12e-10
Epoch 2016 Jan 18.0 TT = JDT 2457405.5 Find_Orb
q 25311.2835 +/- 97.4
H 27.4 G 0.15 Peri. 34.22757 +/- 0.043
Node 104.16430 +/- 0.07
e 5.6776917 +/- 0.0191 Incl. 77.65159 +/- 0.045
From 81 observations 2015 Mar. 14-Oct. 18; mean residual 2".034
Orbital elements (current): WE0913A = DSCOVR object = 2015-007B = NORAD 40391
Perigee 2015 Oct 19.423270 +/- 0.000188 TT; A1=2.88e-9, A2=6.12e-10
Epoch 2015 Oct 26.0 TT = JDT 2457321.5 Find_Orb
M 53.96409 +/- 0.0019 (J2000 equatorial)
n 8.20530813 +/- 6.55e-5 Peri. 29.56666 +/- 0.0022
a525460.703 +/- 2.79 Node 40.30468 +/- 0.00016
e 0.2095593 +/- 4.73e-6 Incl. 65.10036 +/- 0.00010
P 43.87d H 27.4 G 0.15 U 6.3
q 415345.494 +/- 0.754 Q 635575.912 +/- 5.8
From 81 observations 2015 Mar. 14-Oct. 18; mean residual 2".034
Orbital elements (original lunar flyby): WE0913A = DSCOVR object = 2015-007B = NORAD 40391
Perilune 2015 Feb 13.858977 +/- 2.32e-5 TT; A1=2.88e-9, A2=6.12e-10
Epoch 2015 Feb 14.0 TT = JDT 2457067.5 Find_Orb
q 19982.1433 +/- 5.35
H 27.4 G 0.15 Peri. 149.68390 +/- 0.0022
Node 5.25695 +/- 0.0037
e 3.9823386 +/- 0.000792 Incl. 94.90071 +/- 0.0018
